Time,TemperatureF,DewpointF,PressureIn,WindDirection,WindDirectionDegrees,WindSpeedMPH,WindSpeedGustMPH,Humidity,HourlyPrecipIn,Conditions,Clouds,dailyrainin,SoftwareType,DateUTC
2013-04-17 00:02:00,17.0,6.0,32.50,NE,47,5.0,11.0,62,0.00,,,0.00,weatherlink.com 1.10,2013-04-17 06:02:00,
2013-04-17 00:17:00,16.6,7.0,32.50,NE,49,5.0,12.0,65,0.00,,,0.00,weatherlink.com 1.10,2013-04-17 06:17:00,
2013-04-17 00:32:00,16.1,7.0,32.50,ENE,66,7.0,8.0,68,0.00,,,0.00,weatherlink.com 1.10,2013-04-17 06:32:00,
2013-04-17 00:48:00,16.0,7.0,32.50,NE,55,3.0,10.0,68,0.00,,,0.00,weatherlink.com 1.10,2013-04-17 06:48:00,
2013-04-17 01:03:00,15.8,7.0,32.50,East,82,7.0,10.0,69,0.00,,,0.00,weatherlink.com 1.10,2013-04-17 07:03:00,
2013-04-17 01:18:00,15.9,7.0,32.50,East,84,7.0,10.0,69,0.00,,,0.00,weatherlink.com 1.10,2013-04-17 07:18:00,
2013-04-17 01:33:00,15.7,7.0,32.50,ENE,73,7.0,9.0,69,0.00,,,0.00,weatherlink.com 1.10,2013-04-17 07:33:00,
2013-04-17 01:48:00,15.6,7.0,32.50,East,88,7.0,13.0,69,0.00,,,0.00,weatherlink.com 1.10,2013-04-17 07:48:00,
2013-04-17 02:03:00,15.9,6.0,32.50,East,92,7.0,17.0,64,0.00,,,0.00,weatherlink.com 1.10,2013-04-17 08:03:00,
2013-04-17 02:18:00,16.1,5.0,32.50,ENE,78,12.0,16.0,63,0.00,,,0.00,weatherlink.com 1.10,2013-04-17 08:18:00,
2013-04-17 02:33:00,15.8,5.0,32.50,ENE,71,11.0,15.0,63,0.00,,,0.00,weatherlink.com 1.10,2013-04-17 08:33:00,
2013-04-17 02:48:00,15.7,5.0,32.50,ENE,72,8.0,16.0,64,0.00,,,0.00,weatherlink.com 1.10,2013-04-17 08:48:00,
2013-04-17 03:03:00,15.7,5.0,32.50,NE,34,11.0,14.0,64,0.00,,,0.00,weatherlink.com 1.10,2013-04-17 09:03:00,
2013-04-17 03:18:00,15.9,5.0,32.50,East,81,9.0,17.0,63,0.00,,,0.00,weatherlink.com 1.10,2013-04-17 09:18:00,
2013-04-17 03:33:00,15.7,5.0,32.50,NE,50,5.0,15.0,64,0.00,,,0.00,weatherlink.com 1.10,2013-04-17 09:33:00,
2013-04-17 03:48:00,15.1,6.0,32.50,NW,309,1.0,9.0,66,0.00,,,0.00,weatherlink.com 1.10,2013-04-17 09:48:00,
2013-04-17 04:03:00,15.3,5.0,32.50,ESE,123,5.0,11.0,65,0.00,,,0.00,weatherlink.com 1.10,2013-04-17 10:03:00,
2013-04-17 04:18:00,15.0,5.0,32.50,ESE,105,2.0,5.0,66,0.00,,,0.00,weatherlink.com 1.10,2013-04-17 10:18:00,
2013-04-17 04:33:00,14.5,6.0,32.50,NE,43,2.0,4.0,68,0.00,,,0.00,weatherlink.com 1.10,2013-04-17 10:33:00,
2013-04-17 04:48:00,14.5,6.0,32.50,ENE,65,3.0,9.0,68,0.00,,,0.00,weatherlink.com 1.10,2013-04-17 10:48:00,
2013-04-17 05:03:00,13.9,5.0,32.50,ENE,74,1.0,3.0,69,0.00,,,0.00,weatherlink.com 1.10,2013-04-17 11:03:00,
2013-04-17 05:18:00,14.3,6.0,32.50,NE,44,2.0,4.0,68,0.00,,,0.00,weatherlink.com 1.10,2013-04-17 11:18:00,
2013-04-17 05:33:00,14.8,5.0,32.50,NE,42,1.0,6.0,66,0.00,,,0.00,weatherlink.com 1.10,2013-04-17 11:33:00,
2013-04-17 05:48:00,14.7,6.0,32.50,NW,324,3.0,4.0,67,0.00,,,0.00,weatherlink.com 1.10,2013-04-17 11:48:00,
2013-04-17 06:03:00,14.8,5.0,32.50,North,355,3.0,4.0,66,0.00,,,0.00,weatherlink.com 1.10,2013-04-17 12:03:00,
2013-04-17 06:18:00,14.8,5.0,32.50,NE,43,1.0,3.0,66,0.00,,,0.00,weatherlink.com 1.10,2013-04-17 12:18:00,
2013-04-17 06:33:00,14.8,5.0,32.50,NE,43,0.0,2.0,66,0.00,,,0.00,weatherlink.com 1.10,2013-04-17 12:33:00,
2013-04-17 06:48:00,14.7,6.0,32.50,NE,43,0.0,0.0,67,0.00,,,0.00,weatherlink.com 1.10,2013-04-17 12:48:00,
2013-04-17 07:03:00,15.0,5.0,32.50,NE,43,0.0,3.0,66,0.00,,,0.00,weatherlink.com 1.10,2013-04-17 13:03:00,
2013-04-17 07:18:00,15.3,6.0,32.50,ENE,60,0.0,0.0,66,0.00,,,0.00,weatherlink.com 1.10,2013-04-17 13:18:00,
2013-04-17 07:33:00,16.7,6.0,32.50,ENE,60,0.0,3.0,62,0.00,,,0.00,weatherlink.com 1.10,2013-04-17 13:33:00,
2013-04-17 07:48:00,17.4,6.0,32.50,ENE,76,1.0,2.0,61,0.00,,,0.00,weatherlink.com 1.10,2013-04-17 13:48:00,
2013-04-17 08:03:00,18.3,6.0,32.50,ENE,58,2.0,4.0,59,0.00,,,0.00,weatherlink.com 1.10,2013-04-17 14:03:00,
2013-04-17 08:18:00,19.1,6.0,32.50,NE,50,3.0,5.0,58,0.00,,,0.00,weatherlink.com 1.10,2013-04-17 14:18:00,
2013-04-17 08:33:00,18.9,6.0,32.50,NNE,22,1.0,7.0,57,0.00,,,0.00,weatherlink.com 1.10,2013-04-17 14:33:00,
2013-04-17 08:49:00,19.3,7.0,32.50,NNW,338,1.0,6.0,59,0.00,,,0.00,weatherlink.com 1.10,2013-04-17 14:49:00,
2013-04-17 09:04:00,20.0,8.0,32.50,ENE,58,0.0,4.0,60,0.00,,,0.00,weatherlink.com 1.10,2013-04-17 15:04:00,
2013-04-17 09:19:00,20.1,7.0,32.50,WNW,296,1.0,7.0,57,0.00,,,0.00,weatherlink.com 1.10,2013-04-17 15:19:00,
2013-04-17 09:34:00,20.2,8.0,32.50,SE,125,1.0,5.0,60,0.00,,,0.00,weatherlink.com 1.10,2013-04-17 15:34:00,
2013-04-17 09:49:00,20.6,8.0,32.50,NE,38,2.0,5.0,58,0.00,,,0.00,weatherlink.com 1.10,2013-04-17 15:49:00,
2013-04-17 10:04:00,21.4,9.0,32.50,SE,131,9.0,10.0,60,0.00,,,0.00,weatherlink.com 1.10,2013-04-17 16:04:00,
2013-04-17 10:19:00,21.0,9.0,32.50,West,267,2.0,6.0,59,0.00,,,0.00,weatherlink.com 1.10,2013-04-17 16:19:00,
2013-04-17 10:34:00,20.0,9.0,32.50,West,265,1.0,5.0,63,0.00,,,0.00,weatherlink.com 1.10,2013-04-17 16:34:00,
2013-04-17 10:49:00,20.4,10.0,32.50,West,277,2.0,6.0,63,0.00,,,0.00,weatherlink.com 1.10,2013-04-17 16:49:00,
2013-04-17 11:04:00,20.6,9.0,32.50,NW,304,2.0,6.0,61,0.00,,,0.00,weatherlink.com 1.10,2013-04-17 17:04:00,
2013-04-17 11:19:00,20.5,9.0,32.50,West,281,3.0,10.0,61,0.00,,,0.00,weatherlink.com 1.10,2013-04-17 17:19:00,
2013-04-17 11:34:00,21.8,9.0,32.50,North,350,3.0,9.0,58,0.00,,,0.00,weatherlink.com 1.10,2013-04-17 17:34:00,
2013-04-17 11:49:00,22.8,9.0,32.50,WNW,296,7.0,9.0,55,0.00,,,0.00,weatherlink.com 1.10,2013-04-17 17:49:00,
2013-04-17 12:04:00,22.4,8.0,32.50,NW,319,9.0,12.0,53,0.00,,,0.00,weatherlink.com 1.10,2013-04-17 18:04:00,
2013-04-17 12:19:00,22.7,5.0,32.50,WNW,288,5.0,11.0,47,0.00,,,0.00,weatherlink.com 1.10,2013-04-17 18:19:00,
2013-04-17 12:34:00,23.1,5.0,32.50,NW,312,1.0,9.0,46,0.00,,,0.00,weatherlink.com 1.10,2013-04-17 18:34:00,
2013-04-17 12:49:00,25.2,5.0,32.50,WNW,303,3.0,10.0,42,0.00,,,0.00,weatherlink.com 1.10,2013-04-17 18:49:00,
2013-04-17 13:04:00,25.0,4.0,32.50,WNW,286,10.0,11.0,41,0.00,,,0.00,weatherlink.com 1.10,2013-04-17 19:04:00,
2013-04-17 13:19:00,26.0,7.0,32.50,NNW,336,6.0,10.0,45,0.00,,,0.00,weatherlink.com 1.10,2013-04-17 19:19:00,
2013-04-17 13:34:00,26.0,9.0,32.50,NNW,338,8.0,11.0,48,0.00,,,0.00,weatherlink.com 1.10,2013-04-17 19:34:00,
2013-04-17 13:49:00,26.8,8.0,32.50,NW,311,3.0,15.0,45,0.00,,,0.00,weatherlink.com 1.10,2013-04-17 19:49:00,
2013-04-17 14:05:00,28.6,8.0,32.50,WNW,303,6.0,14.0,42,0.00,,,0.00,weatherlink.com 1.10,2013-04-17 20:05:00,
2013-04-17 14:20:00,29.1,5.0,32.50,NW,318,7.0,13.0,36,0.00,,,0.00,weatherlink.com 1.10,2013-04-17 20:20:00,
2013-04-17 14:35:00,28.7,1.0,32.50,NNW,340,5.0,17.0,30,0.00,,,0.00,weatherlink.com 1.10,2013-04-17 20:35:00,
2013-04-17 14:50:00,29.5,4.0,32.50,NNW,328,5.0,12.0,34,0.00,,,0.00,weatherlink.com 1.10,2013-04-17 20:50:00,
2013-04-17 15:05:00,30.1,5.0,32.50,NW,324,3.0,12.0,34,0.00,,,0.00,weatherlink.com 1.10,2013-04-17 21:05:00,
2013-04-17 15:20:00,31.1,7.0,32.50,NNW,336,6.0,15.0,36,0.00,,,0.00,weatherlink.com 1.10,2013-04-17 21:20:00,
2013-04-17 15:35:00,31.3,4.0,32.50,NNW,331,7.0,13.0,32,0.00,,,0.00,weatherlink.com 1.10,2013-04-17 21:35:00,
2013-04-17 15:50:00,30.8,8.0,32.50,NW,325,6.0,11.0,38,0.00,,,0.00,weatherlink.com 1.10,2013-04-17 21:50:00,
2013-04-17 16:05:00,31.5,8.0,32.50,NW,315,5.0,10.0,38,0.00,,,0.00,weatherlink.com 1.10,2013-04-17 22:05:00,
2013-04-17 16:20:00,31.3,8.0,32.50,West,281,3.0,13.0,38,0.00,,,0.00,weatherlink.com 1.10,2013-04-17 22:20:00,
2013-04-17 16:35:00,33.0,9.0,32.50,NNW,340,5.0,11.0,36,0.00,,,0.00,weatherlink.com 1.10,2013-04-17 22:35:00,
2013-04-17 16:50:00,32.8,8.0,32.50,NNW,336,8.0,15.0,36,0.00,,,0.00,weatherlink.com 1.10,2013-04-17 22:50:00,
2013-04-17 17:05:00,32.3,10.0,32.50,NW,326,6.0,11.0,39,0.00,,,0.00,weatherlink.com 1.10,2013-04-17 23:05:00,
2013-04-17 17:20:00,33.4,10.0,32.50,North,11,6.0,15.0,38,0.00,,,0.00,weatherlink.com 1.10,2013-04-17 23:20:00,
2013-04-17 17:35:00,33.1,7.0,32.50,North,5,5.0,12.0,34,0.00,,,0.00,weatherlink.com 1.10,2013-04-17 23:35:00,
2013-04-17 17:50:00,33.4,8.0,32.50,NW,304,6.0,11.0,35,0.00,,,0.00,weatherlink.com 1.10,2013-04-17 23:50:00,
2013-04-17 18:05:00,33.2,7.0,32.50,NNW,346,8.0,12.0,33,0.00,,,0.00,weatherlink.com 1.10,2013-04-18 00:05:00,
2013-04-17 18:20:00,33.2,6.0,32.50,WNW,282,4.0,10.0,32,0.00,,,0.00,weatherlink.com 1.10,2013-04-18 00:20:00,
2013-04-17 18:35:00,33.6,7.0,32.50,NNW,343,4.0,9.0,32,0.00,,,0.00,weatherlink.com 1.10,2013-04-18 00:35:00,
2013-04-17 18:50:00,33.7,8.0,32.50,WNW,300,4.0,9.0,34,0.00,,,0.00,weatherlink.com 1.10,2013-04-18 00:50:00,
2013-04-17 19:05:00,33.5,6.0,32.50,NNW,329,5.0,11.0,32,0.00,,,0.00,weatherlink.com 1.10,2013-04-18 01:05:00,
2013-04-17 19:20:00,32.6,7.0,32.50,WNW,288,6.0,10.0,34,0.00,,,0.00,weatherlink.com 1.10,2013-04-18 01:20:00,
2013-04-17 19:41:00,31.2,6.0,32.50,NNW,336,5.0,10.0,34,0.00,,,0.00,weatherlink.com 1.10,2013-04-18 01:41:00,
2013-04-17 19:50:00,30.5,6.0,32.50,NNW,330,4.0,10.0,36,0.00,,,0.00,weatherlink.com 1.10,2013-04-18 01:50:00,
2013-04-17 20:05:00,30.4,6.0,32.50,NW,311,5.0,9.0,36,0.00,,,0.00,weatherlink.com 1.10,2013-04-18 02:05:00,
2013-04-17 20:20:00,29.9,6.0,32.50,NW,325,5.0,6.0,37,0.00,,,0.00,weatherlink.com 1.10,2013-04-18 02:20:00,
2013-04-17 20:35:00,29.4,7.0,32.50,NW,318,1.0,3.0,38,0.00,,,0.00,weatherlink.com 1.10,2013-04-18 02:35:00,
2013-04-17 20:50:00,29.0,7.0,32.50,NW,325,6.0,7.0,39,0.00,,,0.00,weatherlink.com 1.10,2013-04-18 02:50:00,
2013-04-17 21:20:00,29.4,7.0,32.50,WNW,297,6.0,9.0,39,0.00,,,0.00,weatherlink.com 1.10,2013-04-18 03:20:00,
2013-04-17 21:35:00,29.2,8.0,32.50,WNW,300,4.0,9.0,40,0.00,,,0.00,weatherlink.com 1.10,2013-04-18 03:35:00,
2013-04-17 21:50:00,28.9,8.0,32.50,WNW,292,4.0,7.0,42,0.00,,,0.00,weatherlink.com 1.10,2013-04-18 03:50:00,
2013-04-17 22:05:00,28.9,9.0,32.50,WNW,290,2.0,8.0,43,0.00,,,0.00,weatherlink.com 1.10,2013-04-18 04:05:00,
2013-04-17 22:20:00,28.7,9.0,32.50,WNW,292,6.0,10.0,44,0.00,,,0.00,weatherlink.com 1.10,2013-04-18 04:20:00,
2013-04-17 22:35:00,28.7,10.0,32.50,WNW,298,7.0,10.0,45,0.00,,,0.00,weatherlink.com 1.10,2013-04-18 04:35:00,
2013-04-17 22:50:00,28.4,10.0,32.50,WNW,284,4.0,11.0,46,0.00,,,0.00,weatherlink.com 1.10,2013-04-18 04:50:00,
2013-04-17 23:05:00,28.0,10.0,32.50,WNW,286,8.0,10.0,47,0.00,,,0.00,weatherlink.com 1.10,2013-04-18 05:05:00,
2013-04-17 23:20:00,27.9,10.0,32.50,WNW,298,5.0,11.0,47,0.00,,,0.00,weatherlink.com 1.10,2013-04-18 05:20:00,
2013-04-17 23:35:00,27.8,10.0,32.50,WNW,299,5.0,9.0,48,0.00,,,0.00,weatherlink.com 1.10,2013-04-18 05:35:00,
2013-04-17 23:50:00,27.5,10.0,32.50,WNW,290,8.0,9.0,48,0.00,,,0.00,weatherlink.com 1.10,2013-04-18 05:50:00,